Vorticity
6 4 3 -0 0 7 5 1 3 -2 8 12 13 15 6 4 6 6 6 5 3 3
12 15 16 13 13 8 4 -1 7 4 6 6 6 16 13 7 4 4 3 5 6 4
8 6 8 8 7 13 13 11 5 7 10 8 1 10 5 5 20 7 -1 21 8 3
9 10 14 9 3 13 22 31 12 15 22 21 9 5 5 9 17 1 14 7 -8 29
21 11 21 10 32 20 11 -6 22 8 12 -3 10 13 1 9 -40 41 34 6 41 37
27 16 21 36 11 20 22 15 7 2 4 5 14 5 30 21 70 12 8 15 11 0
22 25 14 10 23 27 24 28 23 23 25 17 10 13 -0 12 9 34 4 0 3 1
6 13 18 21 12 13 12 12 12 11 12 16 18 17 16 14 12 11 10 9 6 -5
-5 5 5 7 2 3 7 8 11 13 12 13 11 10 10 10 9 3 -8 3 17 12
15 35 -10 -0 2 3 3 8 4 4 7 7 7 3 2 -3 2 10 12 11 13 11
5 9 3 6 17 22 1 -21 8 13 1 6 9 4 4 4 6 7 8 6 8 7
9 10 9 14 12 11 6 1 25 17 18 7 5 9 14 14 8 5 7 4 5 7
8 9 11 10 11 10 11 19 17 9 1 -0 8 11 7 7 1 7 3 7 6 5
8 8 8 7 9 11 10 10 11 11 13 20 15 12 20 19 10 10 13 10 12 11
Height
3098 3102 3105 3108 3112 3114 3116 3120 3121 3122 3125 3129 3131 3134 3136 3138 3141 3145 3144 3146 3149 3149
3087 3090 3093 3096 3098 3101 3103 3107 3109 3111 3114 3117 3119 3122 3124 3125 3127 3130 3132 3135 3137 3135
3075 3079 3082 3084 3086 3088 3091 3093 3096 3099 3102 3106 3110 3112 3112 3112 3114 3116 3118 3124 3126 3126
3064 3067 3070 3073 3075 3078 3079 3082 3085 3087 3091 3096 3099 3103 3103 3104 3104 3104 3106 3112 3114 3115
3054 3057 3060 3063 3066 3069 3072 3073 3075 3078 3081 3085 3088 3090 3092 3094 3093 3095 3102 3101 3102 3105
3046 3049 3052 3054 3057 3060 3062 3063 3065 3068 3070 3073 3076 3079 3079 3081 3080 3084 3086 3085 3093 3094
3041 3043 3046 3045 3048 3049 3052 3053 3055 3058 3060 3062 3064 3067 3069 3069 3071 3072 3077 3082 3083 3084
3036 3035 3038 3040 3041 3042 3043 3042 3044 3047 3049 3050 3052 3054 3057 3059 3061 3063 3066 3069 3071 3073
3034 3034 3033 3031 3033 3034 3035 3036 3036 3038 3039 3041 3043 3045 3048 3050 3052 3054 3056 3059 3059 3061
3026 3025 3025 3025 3026 3026 3026 3027 3028 3030 3032 3033 3034 3036 3038 3040 3041 3043 3045 3048 3049 3050
3018 3018 3017 3017 3015 3018 3018 3018 3019 3021 3022 3023 3025 3026 3027 3029 3030 3032 3034 3035 3037 3038
3010 3009 3006 3005 3007 3007 3005 3006 3006 3010 3013 3014 3015 3015 3017 3018 3019 3020 3022 3022 3023 3025
3001 2998 2997 2996 2999 2997 2996 2996 2997 3000 2999 2999 3000 3001 3005 3006 3005 3005 3007 3008 3009 3009
2989 2988 2987 2988 2987 2985 2984 2984 2984 2986 2988 2987 2987 2987 2986 2986 2988 2989 2989 2990 2992 2995